Corpus Christi, TX

5:12 PM CDT on March 23, 2017 (GMT -0500)
Corpus Christi International

Weather History for KCRP - May, 2013

Change the Weather History Date:

Sunday, May 26, 2013

  Actual Average Record
Temperature  
Mean Temperature 84 °F 80 °F  
Max Temperature 90 °F 88 °F 97 °F (1928)
Min Temperature 78 °F 72 °F 61 °F (1947)
Degree Days  
Heating Degree Days 0 0  
Month to date heating degree days 1 0  
Since 1 July heating degree days 529 898  
Cooling Degree Days 19 15  
Month to date cooling degree days 366 336  
Year to date cooling degree days 909 764  
Growing Degree Days 34 (Base 50)    
Moisture  
Dew Point 72 °F    
Average Humidity 69    
Maximum Humidity 85    
Minimum Humidity 52    
Precipitation  
Precipitation 0.00 in 0.11 in 2.05 in (1946)
Month to date precipitation 1.40 2.52  
Year to date precipitation 4.73 9.72  
Snow  
Snow 0.00 in - - ()
Month to date snowfall 0.0  
Since 1 July snowfall 0.0  
Snow Depth 0.00 in    
Sea Level Pressure  
Sea Level Pressure 30.03 in    
Wind  
Wind Speed 15 mph (SE)    
Max Wind Speed 23 mph    
Max Gust Speed 29 mph    
Visibility 10 miles    
Events      
T = Trace of Precipitation, MM = Missing Value Source: NWS Daily Summary

Daily Weather History Graph

Daily Weather History Graph

Search for Another Location

Airport or City:

Trip Planner

Search our weather history database for the weather conditions in past years. The results will help you decide how hot, cold, wet, or windy it might be!

Date:

Astronomy

May. 26, 2013 Rise Set
Actual Time 6:35 AM CDT 8:18 PM CDT
Civil Twilight 6:09 AM CDT 8:44 PM CDT
Nautical Twilight 5:38 AM CDT 9:16 PM CDT
Astronomical Twilight 5:05 AM CDT 9:48 PM CDT
Moon 10:09 PM CDT (5/26) 8:05 AM CDT (5/26)
Length of Visible Light 14h 34m
Length of Day
13h 42m
Waning Gibbous, 96% of the Moon is Illuminated
May 26
Waning Gibbous
May 31
Last Quarter
Jun 8
New
Jun 16
First Quarter
Jun 23
Full

Hourly Weather History & Observations

Time (CDT) Temp. Heat Index Dew Point Humidity Pressure Visibility Wind Dir Wind Speed Gust Speed Precip Events Conditions
12:27 AM 78.8 °F - 73.4 °F 83% 30.05 in 10.0 mi SE 12.7 mph - N/A   Scattered Clouds
12:51 AM 78.1 °F - 73.0 °F 84% 30.04 in 10.0 mi SE 15.0 mph - N/A   Partly Cloudy
1:21 AM 78.8 °F - 73.4 °F 83% 30.05 in 10.0 mi SSE 11.5 mph - N/A   Mostly Cloudy
1:41 AM 78.8 °F - 73.4 °F 83% 30.05 in 10.0 mi SSE 10.4 mph - N/A   Mostly Cloudy
1:51 AM 78.1 °F - 73.9 °F 87% 30.04 in 10.0 mi SSE 10.4 mph - N/A   Mostly Cloudy
2:51 AM 79.0 °F - 73.9 °F 84% 30.04 in 10.0 mi SSE 10.4 mph - N/A   Overcast
3:51 AM 79.0 °F - 73.0 °F 82% 30.03 in 10.0 mi SE 11.5 mph - N/A   Overcast
4:03 AM 78.8 °F - 73.4 °F 83% 30.03 in 10.0 mi SE 10.4 mph - N/A   Overcast
4:51 AM 79.0 °F - 73.0 °F 82% 30.00 in 10.0 mi SE 16.1 mph - N/A   Scattered Clouds
5:21 AM 78.8 °F - 73.4 °F 83% 30.01 in 10.0 mi SE 11.5 mph - N/A   Mostly Cloudy
5:51 AM 78.1 °F - 73.0 °F 84% 30.01 in 10.0 mi SE 12.7 mph - N/A   Overcast
6:51 AM 78.1 °F - 73.0 °F 84% 30.03 in 10.0 mi SE 9.2 mph - N/A   Overcast
7:51 AM 79.0 °F - 73.0 °F 82% 30.04 in 10.0 mi SE 11.5 mph - N/A   Mostly Cloudy
8:29 AM 80.6 °F 85.4 °F 73.4 °F 79% 30.05 in 10.0 mi SE 13.8 mph - N/A   Scattered Clouds
8:51 AM 81.0 °F 85.8 °F 73.0 °F 77% 30.06 in 10.0 mi SE 15.0 mph - N/A   Scattered Clouds
9:51 AM 82.0 °F 86.7 °F 72.0 °F 71% 30.07 in 10.0 mi SE 13.8 mph - N/A   Mostly Cloudy
10:16 AM 82.4 °F 87.2 °F 71.6 °F 70% 30.08 in 10.0 mi SE 15.0 mph - N/A   Scattered Clouds
10:51 AM 84.9 °F 91.4 °F 73.0 °F 67% 30.07 in 10.0 mi SE 17.3 mph 20.7 mph N/A   Scattered Clouds
11:11 AM 84.2 °F 89.6 °F 71.6 °F 66% 30.07 in 10.0 mi SE 16.1 mph 20.7 mph N/A   Mostly Cloudy
11:51 AM 86.0 °F 92.2 °F 72.0 °F 63% 30.07 in 10.0 mi SE 13.8 mph 24.2 mph N/A   Mostly Cloudy
12:08 PM 86.0 °F 91.8 °F 71.6 °F 62% 30.07 in 10.0 mi SSE 17.3 mph - N/A   Scattered Clouds
12:51 PM 87.1 °F 92.0 °F 70.0 °F 57% 30.06 in 10.0 mi SE 18.4 mph 24.2 mph N/A   Scattered Clouds
1:51 PM 89.1 °F 94.1 °F 70.0 °F 53% 30.04 in 10.0 mi SE 17.3 mph 25.3 mph N/A   Scattered Clouds
2:51 PM 89.1 °F 93.7 °F 69.1 °F 52% 30.03 in 10.0 mi SE 18.4 mph 21.9 mph N/A   Scattered Clouds
3:51 PM 89.1 °F 93.7 °F 69.1 °F 52% 30.01 in 10.0 mi SSE 19.6 mph - N/A   Scattered Clouds
4:51 PM 88.0 °F 91.4 °F 68.0 °F 51% 29.99 in 10.0 mi SSE 17.3 mph - N/A   Scattered Clouds
5:51 PM 86.0 °F 90.1 °F 69.1 °F 57% 29.98 in 10.0 mi SE 18.4 mph - N/A   Partly Cloudy
6:51 PM 82.9 °F 87.0 °F 70.0 °F 65% 29.97 in 10.0 mi SE 17.3 mph - N/A   Scattered Clouds
7:51 PM 82.0 °F 86.3 °F 71.1 °F 69% 29.98 in 10.0 mi SE 19.6 mph - N/A   Scattered Clouds
8:51 PM 80.1 °F 83.8 °F 72.0 °F 76% 30.00 in 10.0 mi SE 17.3 mph - N/A   Scattered Clouds
9:51 PM 79.0 °F - 72.0 °F 79% 30.01 in 10.0 mi SE 15.0 mph - N/A   Partly Cloudy
10:51 PM 79.0 °F - 72.0 °F 79% 30.01 in 10.0 mi SE 13.8 mph - N/A   Scattered Clouds
11:51 PM 79.0 °F - 72.0 °F 79% 30.01 in 10.0 mi SSE 12.7 mph - N/A   Partly Cloudy